Theta_e
302 302 301 300 299 300 301 301 301 302 302 298 296 298 292 292 291 300 301 301 299 295 289 293 289 289 291 294 291 293 290 289 290 288 290 288 291 291 289 289 288 289 289 289 292 294 292 293 291 295 296 297 300 300 300 300 294 297 295 292 295 306 293 289 289 292 294 295 295 298 298 297 294 293 293 293 294 295 294 292 292 288 287 288 286 285 289
302 301 300 299 299 300 301 301 300 300 302 299 298 294 292 294 292 293 300 302 299 291 283 283 287 289 291 291 290 292 291 290 288 288 289 288 289 289 289 291 291 291 292 293 293 296 289 294 294 295 296 297 300 298 301 297 295 296 295 294 300 289 289 291 287 287 290 293 295 296 298 300 297 296 296 292 292 292 294 293 294 288 289 290 287 282 290
301 300 299 299 300 301 301 300 299 300 301 302 298 291 294 294 298 296 296 300 298 289 290 288 287 289 288 287 286 288 291 292 290 288 287 290 289 289 289 290 291 292 293 295 296 296 295 293 295 296 297 297 300 299 302 302 299 305 300 308 299 294 289 290 284 282 280 280 282 285 288 294 296 296 294 294 293 293 295 288 290 286 288 287 288 287 296
300 299 299 299 300 301 300 299 301 301 301 302 298 295 293 291 284 291 293 296 295 295 297 294 290 288 288 285 287 290 286 291 294 291 289 290 289 290 290 292 292 292 294 294 294 295 298 295 294 295 296 297 298 298 300 306 307 308 307 303 300 291 291 290 291 289 287 289 291 292 294 294 293 292 295 293 292 291 297 295 288 287 288 289 292 295 295
299 299 299 299 300 300 300 299 300 301 301 302 299 296 293 293 287 286 284 291 292 291 294 292 293 288 290 283 289 288 289 292 294 295 292 294 291 291 292 292 294 292 295 293 293 293 295 297 297 295 296 296 298 299 301 304 307 306 304 303 296 295 291 291 291 290 290 290 292 294 294 293 292 294 293 292 292 293 296 290 289 295 289 287 295 298 295
300 300 300 300 300 299 299 300 300 301 302 303 300 291 294 286 292 294 293 286 284 285 287 291 291 294 290 288 294 292 291 291 288 294 294 293 294 291 291 291 292 291 294 295 291 293 293 294 290 294 295 295 296 299 300 300 302 305 300 300 300 295 289 291 292 291 293 293 293 294 292 291 291 290 291 292 291 293 294 293 293 295 290 289 295 299 298
300 301 300 300 299 299 299 301 301 302 302 302 298 289 295 295 294 295 299 289 292 288 291 293 292 292 293 293 294 291 290 290 292 291 292 292 294 293 286 290 291 292 291 294 292 294 290 288 294 295 295 295 295 295 297 299 300 301 300 298 297 297 290 292 293 291 292 292 293 294 292 292 292 292 292 293 293 291 292 290 289 294 294 297 299 299 299
301 301 300 299 299 300 301 301 302 302 302 302 296 294 290 290 291 291 298 295 294 294 294 294 293 291 294 289 291 292 292 291 293 291 290 287 292 294 291 289 293 293 293 293 292 292 295 296 292 295 296 293 296 295 297 296 299 300 298 300 298 298 290 294 289 291 290 291 292 293 293 293 290 291 293 294 294 294 296 295 294 297 299 300 300 297 292
300 300 299 299 299 300 300 301 302 302 303 297 294 295 297 297 299 297 292 290 292 293 294 293 292 289 291 290 292 292 292 293 292 291 292 291 292 293 292 291 292 293 293 293 292 293 296 298 298 297 297 294 297 297 295 297 298 298 299 299 298 298 290 292 291 289 288 290 290 291 293 293 291 289 291 291 293 292 293 292 294 296 295 298 297 293 291
300 300 299 299 299 300 300 301 302 302 303 297 296 293 301 300 302 300 295 289 294 293 293 292 290 287 292 293 291 292 294 293 291 288 292 293 292 293 294 294 293 292 292 290 292 294 295 296 297 297 297 298 296 297 296 297 300 298 296 296 296 295 293 290 290 289 286 291 289 289 288 292 289 287 289 291 293 293 294 295 297 299 300 294 291 295 294
299 299 299 300 300 300 301 302 302 302 302 296 295 294 297 293 291 294 295 289 290 292 292 291 290 293 293 295 294 295 294 295 293 289 288 293 294 294 294 295 292 290 291 292 294 297 298 299 299 299 298 298 297 298 298 297 296 297 299 296 295 296 296 290 292 288 287 288 290 289 288 284 284 290 293 292 291 293 292 290 291 293 297 294 295 292 292
299 299 299 299 300 301 301 302 302 302 302 300 300 296 298 299 296 295 290 288 288 290 291 290 291 293 293 294 294 293 293 293 293 294 293 293 294 294 295 296 295 289 294 296 296 297 298 299 298 298 298 298 297 297 297 296 296 296 296 299 295 293 292 290 293 290 287 288 288 286 280 282 289 295 295 296 295 294 291 291 291 292 293 293 292 292 292
299 299 299 300 300 301 301 301 302 302 302 302 300 295 299 301 295 293 292 289 287 291 288 291 293 293 292 291 292 294 294 293 293 296 295 296 293 294 292 293 295 294 297 294 295 294 294 293 292 291 291 292 296 297 294 294 294 296 297 297 296 290 291 289 288 288 289 287 286 279 280 287 292 294 295 296 297 297 296 291 291 293 294 293 290 290 290
299 299 300 300 300 301 301 302 302 302 302 302 299 299 299 300 295 293 292 287 287 289 288 289 291 290 292 289 290 292 292 292 294 296 294 294 293 292 293 293 293 294 295 298 295 294 291 289 287 289 290 290 293 293 292 294 293 293 293 294 296 296 293 291 287 288 286 286 285 283 287 287 290 290 291 294 292 293 292 288 288 292 293 294 290 289 289
298 299 299 300 300 301 301 301 302 302 302 303 301 301 299 299 299 295 294 293 286 288 288 288 289 291 292 292 290 290 290 292 292 290 291 294 293 293 294 294 294 293 294 299 294 291 288 287 285 284 286 286 282 284 291 290 293 294 293 293 294 295 294 292 290 284 288 286 283 284 284 283 287 291 294 295 294 294 294 292 288 293 293 294 292 289 288
299 299 299 300 300 301 301 301 302 302 302 303 302 300 300 301 299 297 294 292 289 285 286 288 292 291 292 290 291 291 289 288 289 290 292 293 292 295 295 294 295 294 294 290 289 288 285 286 280 281 280 282 284 286 285 290 290 294 294 296 296 294 295 292 291 285 286 285 284 282 281 283 288 291 293 294 294 295 294 293 290 293 294 293 294 290 290
299 299 300 300 300 300 301 301 302 302 303 303 300 300 299 303 298 296 294 293 291 285 293 291 292 292 290 290 292 291 290 289 290 289 286 289 291 289 294 296 297 296 293 293 289 290 286 283 282 283 283 284 284 284 287 286 285 288 293 295 293 291 288 291 288 285 284 284 283 282 284 284 289 292 292 293 296 294 294 285 287 293 294 294 293 291 290
299 299 300 300 300 301 301 301 302 302 303 304 302 299 299 303 302 299 296 293 289 288 294 293 291 292 291 292 292 289 292 291 290 292 290 288 290 293 293 295 294 292 295 291 287 285 282 282 284 283 282 287 286 287 283 286 284 284 285 284 286 285 286 287 286 286 283 283 281 283 285 288 291 291 292 294 294 294 287 284 289 294 295 295 294 292 292
299 299 299 300 300 301 301 302 302 302 303 304 303 301 300 302 303 301 297 295 293 286 293 292 293 293 293 295 294 293 292 294 296 290 288 290 292 291 291 292 292 291 291 289 288 285 285 283 286 286 285 285 288 284 287 285 283 282 283 286 285 283 283 283 285 285 285 284 285 283 284 287 291 292 293 295 293 286 287 291 294 295 294 295 294 292 293
298 299 300 300 300 301 302 302 302 303 303 304 303 298 300 302 303 301 297 293 290 290 292 292 294 294 294 297 294 294 294 293 291 291 289 289 293 292 292 289 292 294 290 293 285 284 285 284 286 285 285 284 286 286 284 281 283 283 284 283 285 283 284 284 284 279 280 280 282 281 280 285 290 293 294 295 289 290 292 293 296 297 295 294 294 293 292
299 299 300 300 300 301 302 302 303 303 303 304 304 300 298 303 303 303 302 297 293 288 292 294 293 293 295 297 298 296 297 295 295 294 290 292 293 293 286 285 291 291 287 289 286 285 286 285 287 285 287 287 286 287 283 281 283 286 285 286 286 286 284 281 282 284 283 279 281 281 284 287 291 292 290 292 293 295 296 296 293 296 295 294 292 291 291
299 299 299 300 301 301 302 302 303 303 304 304 303 301 297 301 302 303 303 301 293 289 292 295 295 295 296 296 300 299 298 298 299 299 295 292 293 292 291 292 291 294 293 291 288 286 289 288 288 285 286 285 287 284 283 284 282 284 286 286 283 286 286 285 285 283 283 283 283 285 288 289 292 292 291 292 294 295 296 298 296 294 294 295 293 291 292
299 299 300 300 301 302 302 302 303 303 304 304 303 299 296 298 299 303 302 295 297 297 299 298 292 293 296 295 298 299 298 299 300 298 300 297 291 294 296 298 297 293 289 292 296 294 292 291 286 290 287 288 285 283 284 285 283 283 282 285 286 288 289 289 287 282 288 289 290 291 290 291 290 292 293 292 293 294 296 295 294 295 295 295 293 293 292
300 300 300 300 301 302 302 303 303 303 304 304 304 300 298 299 299 301 299 296 292 289 293 295 294 290 291 292 296 297 300 298 300 300 298 302 294 291 294 294 297 295 298 295 295 297 291 289 289 290 287 287 287 286 284 283 282 285 285 284 287 289 290 289 286 287 286 282 288 288 288 289 290 290 292 292 293 293 294 294 294 294 294 294 294 293 293
299 300 300 301 301 302 302 303 303 304 304 304 304 304 303 300 301 300 297 287 285 287 286 287 291 294 295 294 294 296 298 297 301 301 300 301 305 299 297 297 297 299 298 296 293 295 290 290 288 289 285 288 290 284 286 285 282 287 284 284 286 286 292 288 286 286 285 283 287 288 290 290 291 291 290 290 291 291 292 293 294 294 294 294 293 293 293
300 300 300 301 301 302 303 303 303 304 304 304 304 301 299 299 302 302 297 291 289 291 288 285 292 298 297 297 295 295 296 299 299 300 299 299 298 303 299 297 296 296 294 293 297 293 289 288 287 287 289 286 292 287 285 287 288 287 287 285 288 289 291 284 287 284 285 288 288 288 289 289 289 290 291 291 291 291 291 292 293 293 292 292 293 294 293
300 300 301 301 302 302 303 303 304 304 304 304 304 303 301 301 301 300 298 294 293 288 289 288 290 294 296 295 296 297 297 298 299 298 298 298 299 300 300 299 297 297 297 294 291 289 289 288 289 288 290 289 291 288 289 287 288 285 284 286 289 289 286 289 287 282 282 283 285 289 285 284 285 288 290 291 292 292 291 292 292 292 291 292 291 292 293
300 300 301 301 302 303 303 303 304 304 304 304 303 303 303 300 300 301 301 298 298 291 288 286 291 294 296 296 297 296 297 298 298 297 296 296 297 298 298 297 298 297 294 295 291 290 290 289 287 286 287 290 290 286 288 288 289 286 285 286 288 287 288 288 286 285 284 289 290 291 290 289 288 289 290 292 292 292 291 291 291 292 292 292 292 291 292
300 300 301 302 302 303 303 303 304 304 304 302 300 300 300 301 301 301 302 301 299 291 290 291 295 294 290 294 298 296 298 298 298 297 296 296 296 296 296 295 295 293 294 291 290 289 288 287 288 289 289 292 290 285 287 283 283 281 284 288 289 290 290 291 291 290 291 293 292 292 291 287 288 290 291 291 293 292 291 291 292 292 292 293 293 293 292
300 301 301 302 303 303 303 304 304 304 304 300 299 296 294 296 299 300 301 301 298 298 291 288 287 287 294 294 296 295 295 298 298 297 296 295 294 295 294 295 294 294 294 290 290 287 287 288 286 290 292 293 288 285 284 283 282 282 288 289 290 291 291 293 293 292 290 292 292 292 291 290 291 292 292 292 293 293 291 291 292 292 292 293 293 293 293
301 301 302 302 303 303 304 304 304 304 303 298 298 290 287 288 297 301 303 302 298 296 287 291 288 288 291 294 294 294 294 295 296 295 294 294 293 293 294 296 294 295 291 290 290 286 287 286 286 289 291 291 288 286 284 283 281 283 287 289 290 291 292 292 294 294 292 291 292 292 292 291 292 292 292 292 293 293 293 293 293 294 293 294 293 293 293
301 301 302 302 303 303 304 304 304 304 301 299 300 296 296 299 300 301 304 301 298 299 291 287 286 287 285 290 297 293 294 292 292 295 295 295 296 294 295 293 291 294 291 288 287 289 287 284 286 288 288 288 289 286 286 284 282 282 288 289 291 292 293 293 292 292 293 293 292 290 289 290 292 290 289 292 293 294 294 294 295 295 294 294 293 292 291
301 302 302 302 303 303 304 304 304 304 303 302 303 302 301 302 303 303 302 301 298 289 291 287 284 283 285 289 295 297 294 298 294 293 292 294 293 293 293 293 293 293 294 291 286 285 287 286 286 287 287 289 286 285 284 282 283 288 289 290 291 292 292 293 292 292 293 294 294 288 287 288 290 292 293 293 293 292 292 292 293 293 292 291 290 290 289
301 302 302 302 303 304 304 304 304 302 301 299 300 300 300 302 305 303 300 298 293 289 289 287 284 284 285 291 289 294 295 293 289 291 288 293 290 293 289 292 292 289 289 288 286 288 288 288 286 284 288 285 286 285 281 283 288 288 290 290 291 291 291 291 291 291 292 292 293 293 293 293 293 292 292 291 290 291 291 292 292 291 291 291 290 289 290
301 301 302 303 303 304 304 303 301 300 297 296 299 300 301 303 304 302 301 301 292 287 285 284 285 284 284 284 283 290 294 294 288 289 288 290 293 292 292 289 288 288 286 292 286 284 285 286 289 286 282 285 285 281 282 285 287 288 289 289 290 290 290 288 289 290 291 291 291 291 292 292 291 290 290 290 290 290 291 291 292 292 290 290 289 289 290
301 302 302 303 303 302 301 303 301 299 297 295 298 302 303 304 305 303 300 298 301 287 283 283 284 284 284 281 283 287 294 291 288 289 287 288 292 290 290 288 285 286 287 286 284 287 285 288 287 282 282 283 279 283 285 288 288 288 289 289 290 291 290 289 289 290 291 291 291 291 291 291 290 290 290 289 289 290 291 291 291 291 290 289 289 289 289
301 302 302 302 299 301 295 293 297 299 299 299 301 303 304 303 300 304 300 301 300 299 292 284 286 285 287 285 284 287 292 286 288 289 289 288 285 285 288 286 284 286 286 285 285 285 286 290 286 282 281 280 283 288 290 290 290 289 289 289 290 291 291 291 291 291 290 290 290 289 288 288 288 288 288 288 289 290 290 289 290 290 289 289 289 290 291
301 301 298 298 295 289 290 292 298 301 301 301 302 300 299 296 290 289 290 289 291 297 288 291 286 287 285 290 286 291 292 285 288 287 286 285 286 285 284 285 284 286 281 280 285 288 286 282 280 282 282 286 287 289 290 291 291 291 290 290 291 291 291 292 292 291 289 287 287 287 287 287 287 288 288 288 289 290 290 291 292 292 292 291 291 291 290
298 297 296 292 292 287 289 299 301 300 300 300 299 291 288 286 288 287 286 284 286 289 286 291 287 287 289 288 289 294 291 288 284 287 284 288 286 283 286 283 283 285 280 281 284 291 282 281 279 282 282 286 287 288 289 291 290 290 290 290 290 291 291 291 292 291 289 288 288 289 289 287 287 288 289 289 290 291 290 291 291 292 292 292 291 291 291
297 297 290 288 291 294 298 298 298 297 299 292 287 287 286 286 286 285 284 286 285 284 286 286 287 288 290 291 289 289 292 291 286 285 285 286 291 285 282 284 283 282 275 277 281 287 283 277 277 279 280 285 286 288 290 291 290 290 291 291 292 293 294 293 292 292 292 291 292 292 291 291 290 290 289 289 289 289 289 291 291 292 292 292 291 292 292
292 291 291 289 294 294 295 296 297 295 289 286 286 284 284 285 285 283 283 281 281 284 287 289 288 290 288 288 292 289 290 293 289 289 288 286 288 288 284 280 283 281 276 278 283 283 281 279 278 279 282 286 288 289 291 291 291 290 291 292 293 293 293 293 292 293 292 291 292 292 292 292 291 291 292 292 292 291 291 291 291 291 291 290 291 292 290
293 293 293 294 293 293 294 294 289 288 286 285 284 281 281 283 284 284 284 284 283 283 289 290 287 289 290 293 292 291 289 289 289 285 287 284 285 285 280 280 281 279 275 282 283 280 281 275 275 278 284 287 287 289 291 290 290 290 290 291 292 292 293 293 293 294 295 293 293 292 293 293 292 292 292 292 293 292 291 291 290 290 291 292 291 289 289
298 299 296 292 290 289 287 288 286 285 283 283 278 278 280 280 282 283 282 282 284 288 288 291 291 291 291 292 291 291 291 292 289 287 286 284 284 283 282 279 278 276 280 285 283 279 275 274 275 282 288 288 288 289 291 292 291 291 291 292 292 293 293 293 293 293 294 294 293 292 292 293 292 292 292 293 292 291 290 290 291 291 290 290 291 290 289
296 295 293 285 287 286 287 282 286 285 280 277 278 277 277 278 281 280 280 284 288 287 290 291 289 291 287 289 289 286 288 290 287 284 283 281 283 279 277 276 279 282 285 281 279 277 278 277 282 286 288 288 288 289 291 290 290 290 289 290 291 291 292 292 292 292 291 291 292 292 292 292 291 291 292 293 294 292 290 290 289 290 290 291 290 289 288
290 286 284 285 283 283 284 277 281 280 279 280 279 278 277 279 279 278 285 286 290 291 288 289 291 291 288 289 288 286 287 287 286 286 281 283 280 279 278 278 281 280 281 276 276 277 277 279 284 286 287 288 289 289 290 290 290 291 290 290 290 291 292 292 292 293 292 292 292 292 292 292 292 291 292 292 292 293 292 290 289 289 290 291 290 288 286
287 284 281 279 276 280 280 277 276 279 279 280 280 283 284 285 285 286 287 288 289 288 290 290 289 290 287 287 287 286 283 285 286 282 279 280 279 277 281 281 282 278 274 275 273 276 279 284 286 287 288 290 290 290 290 290 291 291 291 290 290 291 292 292 292 293 292 292 292 293 292 292 292 292 292 292 292 292 293 291 291 291 291 290 290 289 287
285 283 281 280 278 280 280 278 277 280 284 284 285 286 289 289 287 289 287 287 290 290 289 288 290 291 288 286 286 285 284 283 283 281 283 280 278 280 282 281 275 273 273 271 271 274 278 284 287 289 289 291 291 289 289 289 290 291 293 292 291 291 291 292 292 292 291 292 291 292 292 292 292 292 292 291 291 292 290 291 291 291 292 292 292 290 288
285 284 283 280 277 279 279 282 284 284 283 285 285 284 285 284 287 289 287 288 291 291 291 290 289 289 287 287 289 284 282 282 283 282 282 281 281 278 274 273 272 273 275 276 279 282 285 287 288 289 290 291 290 288 288 289 290 291 292 291 291 290 290 291 291 291 291 291 291 292 291 291 291 291 293 293 292 291 291 291 290 290 291 291 290 289 290
285 283 282 279 279 279 280 283 284 286 285 284 282 284 285 287 288 289 288 288 290 291 291 292 286 288 284 282 283 284 283 282 280 279 282 280 277 273 273 271 270 274 278 280 285 286 287 289 290 290 290 290 290 290 290 290 291 291 291 291 291 291 291 291 291 291 291 292 292 291 291 292 292 292 293 293 293 292 291 291 291 291 291 291 290 290 290
285 283 282 280 280 281 283 284 285 284 285 284 285 286 285 287 287 289 288 290 289 289 289 288 288 286 282 283 280 279 282 281 281 280 278 275 274 273 274 271 272 276 283 284 284 287 288 289 290 289 289 290 290 291 290 290 289 291 292 292 292 291 292 292 291 291 292 292 292 292 292 291 291 292 293 293 294 293 291 291 291 291 291 291 291 291 290
284 283 282 284 284 283 283 281 282 281 282 285 285 286 286 288 288 290 290 290 289 289 288 287 284 282 282 280 277 277 280 282 282 279 279 279 277 276 276 276 280 282 286 289 288 288 288 290 290 290 290 290 290 291 291 291 291 291 292 292 291 292 292 292 292 292 292 292 292 288 292 292 293 294 295 294 293 292 291 291 290 291 291 291 291 292 291
281 282 283 283 284 283 285 286 285 286 286 286 286 286 287 289 288 290 290 291 291 290 286 283 283 281 277 278 280 282 283 281 279 278 278 279 279 279 276 280 285 288 289 288 287 286 287 290 291 290 291 290 290 291 291 291 291 291 291 291 291 291 291 291 291 292 292 292 292 293 294 294 293 293 292 293 293 292 292 292 291 291 292 292 292 292 293
Wind_Speed
11 9 7 4 3 3 2 1 2 2 3 2 4 3 2 3 1 4 9 9 3 2 2 1 3 5 2 2 3 2 2 1 2 3 1 3 3 4 5 9 6 8 8 5 3 6 4 1 3 3 2 3 3 2 4 3 4 7 2 3 3 2 1 3 3 2 2 1 1 5 2 3 8 5 3 4 7 6 6 4 8 5 4 4 2 3 1
9 7 5 4 3 3 2 0 2 2 4 1 3 2 3 2 2 2 4 6 2 2 3 5 5 4 3 1 3 0 1 1 2 4 3 3 2 4 7 6 8 4 3 4 6 3 4 2 3 3 0 3 1 1 3 8 7 6 7 6 6 3 3 2 3 3 3 4 4 3 2 3 3 3 2 2 4 6 5 6 2 4 5 2 8 6 2
7 5 4 3 3 3 1 2 1 2 2 2 2 2 2 2 2 3 4 4 4 2 1 1 2 6 3 1 4 3 2 4 9 7 4 6 8 3 7 7 3 4 2 2 3 2 2 4 3 2 1 2 0 2 4 5 4 1 0 1 8 2 2 3 3 5 7 6 6 6 6 4 2 3 3 2 5 11 7 4 3 4 4 2 3 2 2
5 5 4 3 3 2 1 1 4 2 1 3 2 3 3 2 3 2 4 3 3 3 3 3 1 2 3 2 3 2 3 3 4 9 8 11 9 9 8 7 3 3 3 4 3 4 3 3 4 3 3 2 0 1 1 3 2 4 8 6 7 4 3 3 2 3 2 2 2 3 1 4 4 2 2 3 2 4 4 4 3 5 6 4 1 5 10
5 5 5 3 3 2 1 2 3 2 3 4 3 3 2 3 1 4 5 1 4 5 4 4 2 2 4 2 3 5 6 3 5 8 5 7 7 5 6 2 0 3 4 5 4 3 4 5 9 1 5 1 2 2 1 4 8 12 8 3 6 5 4 4 9 10 4 3 2 3 3 5 3 6 3 2 2 1 6 6 5 7 9 4 1 10 15
6 6 5 4 2 1 1 3 3 0 3 6 3 3 2 2 1 1 3 2 4 4 5 6 5 5 5 2 1 2 3 2 2 1 6 3 3 3 2 1 4 6 3 6 5 2 5 4 3 3 2 5 1 4 5 3 4 1 3 3 3 4 3 1 3 8 8 6 6 6 9 8 7 7 4 2 2 2 7 4 5 10 5 5 9 14 10
6 6 4 3 2 3 3 5 3 2 4 3 2 2 2 2 2 2 0 2 0 4 1 6 7 4 3 1 2 2 2 4 5 2 3 3 2 1 1 5 6 4 3 1 6 7 9 2 2 3 5 3 4 4 3 5 4 4 4 4 2 5 4 2 6 11 10 9 7 4 12 9 12 10 8 5 3 4 5 5 2 3 1 0 14 14 7
6 5 5 3 3 3 3 3 3 3 4 2 2 3 3 1 1 0 0 2 2 2 1 2 4 4 4 2 4 3 4 3 3 0 1 3 2 3 4 2 6 4 2 3 5 2 2 12 9 4 6 2 0 3 1 5 3 4 4 2 2 2 2 4 1 4 7 8 6 6 4 7 12 10 10 8 7 8 7 6 4 3 7 9 15 14 7
7 5 4 4 3 4 4 5 6 5 3 1 2 3 3 3 2 2 3 2 2 1 1 2 4 1 2 3 2 2 3 2 2 1 2 4 4 3 7 4 8 8 12 11 8 3 2 7 6 7 3 7 3 3 2 1 6 3 3 3 3 5 3 1 1 3 2 4 7 7 10 12 15 12 12 11 6 5 3 3 2 1 10 13 14 10 7
6 6 5 5 4 4 5 6 7 5 3 1 2 3 3 3 2 3 3 2 2 2 1 2 3 4 3 5 4 3 2 1 3 1 3 2 2 3 1 1 9 7 13 9 5 6 6 8 8 8 9 10 8 8 6 2 3 4 3 1 3 2 8 4 2 6 1 1 2 2 1 7 5 5 5 6 4 3 5 6 5 3 12 15 9 7 6
6 5 6 6 6 5 6 7 7 6 3 2 2 2 3 4 3 3 2 2 0 0 2 2 2 2 2 4 2 2 4 5 1 2 1 4 4 3 2 1 11 4 8 4 3 4 9 8 8 8 13 13 13 8 9 13 10 4 5 4 2 3 7 3 1 3 5 2 2 1 4 6 2 2 5 4 2 2 5 4 5 6 5 4 6 9 11
7 6 5 7 5 7 7 8 8 7 4 3 2 2 3 2 3 2 1 1 0 1 2 3 6 2 3 2 2 2 3 7 6 4 3 2 3 4 4 5 7 7 1 2 4 3 4 4 3 9 12 12 14 16 17 15 10 6 2 6 6 6 4 3 1 4 5 1 1 4 5 1 1 2 2 2 8 10 12 9 9 8 11 13 14 13 11
6 7 6 6 6 6 7 7 7 7 5 3 2 2 3 1 2 2 2 1 1 2 2 2 1 2 2 3 2 5 6 5 5 3 4 4 3 6 3 3 5 5 3 5 1 3 4 7 7 7 8 7 10 14 18 15 12 9 9 5 8 4 5 3 3 2 3 2 1 3 1 1 2 3 3 4 6 9 9 10 9 6 8 13 12 10 11
7 7 7 7 7 7 8 8 8 8 8 5 2 1 1 2 1 2 2 1 1 1 2 6 5 3 2 2 4 5 3 5 3 4 5 4 5 4 4 3 3 2 2 4 5 2 4 4 4 4 5 5 4 6 6 5 11 11 10 8 4 9 5 2 4 3 3 3 3 4 2 1 3 4 4 3 4 3 1 3 1 3 4 9 13 11 11
7 7 7 7 7 7 8 8 8 9 8 6 3 2 1 2 0 1 2 2 1 2 3 1 2 2 3 2 2 2 1 2 7 4 2 2 4 3 2 2 1 1 1 1 3 5 2 1 3 2 2 2 2 1 2 4 4 8 6 4 4 4 3 3 3 1 0 5 5 3 2 3 5 3 4 3 4 4 3 3 2 2 3 7 14 14 12
7 7 7 8 8 8 9 9 9 9 9 7 3 3 2 2 2 1 2 1 2 1 1 7 5 3 5 4 2 4 4 3 3 2 3 5 4 3 2 1 1 3 5 6 3 3 2 2 2 2 1 2 1 2 1 3 2 3 5 6 11 9 9 4 3 4 3 1 4 4 5 2 2 7 5 3 1 3 4 1 3 5 9 10 12 13 12
7 8 8 9 8 9 10 9 9 9 9 7 2 2 2 4 3 3 1 0 2 3 5 3 1 2 3 1 3 2 3 4 3 5 2 1 4 4 6 3 1 5 4 5 4 2 3 4 2 2 2 1 2 2 3 2 2 2 3 6 11 9 3 2 5 3 0 3 2 2 1 1 2 5 2 0 1 1 2 2 2 9 12 12 13 15 14
8 9 10 9 10 10 11 10 9 9 9 7 3 2 2 3 3 2 2 1 0 5 4 5 3 1 1 2 3 1 1 3 4 3 3 1 2 3 4 5 4 4 1 4 1 4 3 1 2 1 1 1 2 2 3 2 3 1 1 3 1 3 3 3 4 3 3 4 2 1 1 0 1 1 1 1 2 2 3 5 2 8 10 11 10 11 12
10 10 10 10 11 11 12 11 11 10 10 7 2 3 3 4 4 4 2 3 3 2 6 3 4 1 1 2 3 3 1 1 2 4 1 2 2 1 1 1 2 1 7 3 3 2 2 1 1 0 2 1 1 1 1 2 2 1 1 3 3 2 2 1 1 3 3 1 2 1 1 1 1 1 2 2 2 4 4 3 3 11 11 10 10 12 10
9 10 11 11 12 12 13 12 11 11 10 8 4 3 3 3 5 8 5 2 0 4 6 3 2 6 2 2 3 2 1 3 3 4 3 3 1 0 0 1 1 2 2 2 3 1 1 2 1 1 1 1 1 2 4 3 1 2 1 4 1 1 1 2 2 3 3 1 3 1 3 1 1 1 2 2 1 2 3 7 9 9 11 12 10 10 9
11 11 12 12 13 13 13 13 12 12 10 8 4 3 4 1 5 7 6 2 1 2 2 2 3 4 4 5 5 3 4 4 1 3 1 2 0 1 2 2 2 1 1 1 2 1 1 2 2 1 1 1 1 2 3 4 3 0 2 1 3 2 1 2 1 3 2 2 3 1 2 4 1 2 3 2 3 2 6 8 11 8 10 11 10 8 8
11 11 12 12 13 13 13 13 13 12 10 8 5 3 4 1 2 4 6 5 3 3 3 6 2 4 4 2 2 3 2 3 4 4 7 3 1 1 1 3 2 1 2 3 4 2 1 2 2 2 3 3 1 2 2 2 3 2 1 2 2 3 1 1 2 2 1 1 2 1 3 1 3 2 3 3 3 3 4 6 9 12 9 9 10 12 11
13 13 14 13 13 13 13 13 13 12 11 10 4 3 4 1 1 2 5 4 4 5 5 4 2 3 2 2 3 4 2 1 3 2 3 5 1 0 1 2 2 1 1 2 2 3 2 4 1 2 4 1 4 5 3 3 3 2 2 5 3 4 3 0 6 4 6 7 6 5 4 4 5 6 5 5 5 5 6 7 10 8 10 8 11 12 13
15 14 14 14 14 14 14 13 14 13 13 11 7 4 4 3 2 3 3 1 0 2 0 2 5 5 6 8 8 5 6 7 6 2 2 1 2 0 0 2 2 2 1 1 1 4 4 2 2 1 2 1 1 2 3 2 1 5 5 3 1 1 0 1 5 7 3 3 2 4 4 5 6 6 7 7 6 6 6 7 9 11 10 10 11 12 13
15 15 14 14 14 15 15 14 14 12 11 11 7 5 4 3 5 6 4 1 1 1 2 3 6 4 5 4 5 2 6 4 5 3 2 1 3 3 2 2 2 1 4 3 2 5 2 3 1 1 3 2 2 2 2 3 2 4 3 3 4 3 2 7 7 6 2 5 5 6 7 6 5 4 5 7 7 8 7 7 9 11 11 12 12 12 12
16 16 15 15 15 16 16 16 15 14 12 10 7 5 5 5 6 8 2 1 1 2 4 3 4 7 4 4 8 5 8 7 5 9 10 5 2 2 11 5 5 4 5 2 1 3 2 3 2 1 3 2 2 2 1 5 5 3 1 4 0 2 5 4 6 5 6 8 8 8 9 8 6 5 6 6 8 10 11 10 13 13 14 12 11 9 11
17 17 17 16 16 16 16 16 16 15 13 12 6 7 8 4 5 10 5 3 1 3 3 3 2 5 7 11 5 5 6 7 7 11 12 12 11 8 7 7 8 4 3 4 4 2 2 2 2 3 3 3 3 4 3 5 5 5 5 2 1 4 5 8 10 9 6 6 8 11 7 5 3 4 7 9 10 13 13 12 14 14 14 13 13 11 10
18 18 17 17 17 17 17 16 15 14 13 10 3 5 7 5 6 10 4 1 4 3 3 1 3 1 3 11 8 6 8 5 10 11 11 11 12 9 7 6 5 4 3 2 2 3 2 3 4 0 1 1 3 4 2 3 5 7 5 3 2 1 7 8 4 5 6 7 11 5 7 9 7 8 9 11 11 14 14 14 15 15 14 13 15 15 13
19 18 18 18 18 17 17 16 16 14 13 4 3 4 3 6 5 6 7 1 3 4 4 2 1 4 4 2 7 6 8 7 11 10 9 11 12 10 9 9 7 2 5 5 3 3 3 3 0 3 2 1 3 5 2 3 3 4 1 3 2 3 1 0 4 8 8 11 9 6 7 8 10 11 11 11 9 12 14 12 12 13 12 12 12 12 12
19 19 19 19 20 18 17 16 15 13 12 2 2 1 1 2 3 4 4 5 4 1 3 3 4 0 3 3 5 5 6 8 10 12 12 10 10 8 7 7 6 4 5 2 2 6 1 3 1 2 3 3 1 2 3 4 4 2 2 2 2 1 2 2 1 1 9 8 9 10 14 14 12 12 11 10 10 11 13 13 12 11 11 10 12 11 9
20 19 19 19 20 20 18 17 16 13 8 0 1 1 2 2 1 2 3 4 4 3 3 2 2 1 1 1 1 6 7 6 7 7 7 4 5 5 3 3 5 4 5 3 3 2 0 3 1 2 1 6 2 2 4 4 4 3 2 2 2 3 4 4 6 9 14 13 14 13 13 12 12 13 12 11 11 12 13 11 10 9 11 11 11 10 10
20 20 20 19 19 20 18 17 15 13 2 0 2 2 2 1 2 1 2 3 5 3 4 3 1 2 1 3 2 2 3 3 3 3 4 4 5 4 7 7 4 4 3 3 1 2 3 0 2 3 4 5 3 5 4 5 5 3 3 5 4 6 7 11 12 12 14 17 19 17 14 12 9 9 10 11 11 12 14 14 12 12 12 10 8 8 8
20 20 20 20 19 19 18 16 16 9 3 3 5 4 4 3 6 4 3 4 4 4 3 4 2 1 1 1 5 4 5 3 7 5 5 4 4 4 3 4 2 4 4 3 4 2 1 0 0 5 5 2 3 4 5 5 3 5 7 7 8 9 11 12 13 13 14 8 1 11 15 12 13 15 15 13 12 12 12 12 11 10 10 9 8 8 6
21 21 21 20 19 18 16 17 14 5 2 1 1 2 1 4 6 5 3 5 6 2 2 2 1 2 0 4 3 3 4 3 2 3 4 5 2 2 2 3 5 3 7 4 0 1 1 1 3 2 1 4 2 4 5 4 6 8 9 10 11 13 13 10 9 8 7 9 10 10 13 16 15 12 13 13 11 8 8 8 10 10 8 7 5 5 6
22 22 21 20 19 17 15 10 4 2 0 1 1 2 5 13 10 2 2 1 2 2 3 2 1 2 1 3 2 3 3 4 4 4 3 3 2 4 2 3 3 4 2 1 2 1 2 2 2 1 3 2 3 5 3 6 8 9 11 11 11 11 10 11 9 8 10 11 13 12 12 15 17 14 12 11 10 9 10 9 8 9 8 6 6 6 6
22 21 20 18 18 10 3 1 4 4 3 2 3 6 14 14 8 2 2 1 4 5 2 0 1 1 1 2 2 0 2 4 1 1 1 1 3 4 3 1 6 2 2 3 2 1 2 4 1 2 1 3 3 2 5 9 11 10 10 11 7 5 7 13 13 13 14 12 12 12 12 10 13 13 11 10 9 8 9 9 9 8 8 7 7 6 5
21 20 17 13 6 1 3 1 3 1 1 5 11 16 16 8 1 2 3 4 5 4 5 3 3 1 1 1 0 2 1 2 4 2 5 3 1 2 3 2 3 2 2 3 3 5 3 2 3 5 5 4 4 6 8 9 10 12 10 6 5 9 11 11 15 17 19 17 16 10 9 10 9 9 10 9 9 9 10 10 10 10 10 9 7 6 6
17 10 3 3 2 2 1 1 1 4 8 11 8 2 7 8 1 3 3 3 3 3 3 3 2 1 1 1 2 2 2 1 2 1 1 0 0 1 1 2 1 1 3 2 3 2 1 5 3 5 5 5 5 4 5 7 6 5 6 7 9 9 8 9 13 15 19 17 14 13 11 9 9 8 10 11 11 12 10 8 8 7 7 7 6 6 5
2 3 2 2 3 0 1 1 4 10 3 2 3 1 1 1 1 1 1 2 2 2 2 2 1 1 2 4 2 1 2 2 2 2 2 2 1 1 1 2 2 2 1 1 2 3 2 3 2 3 6 3 6 4 2 5 5 4 5 6 6 7 8 9 8 8 7 5 9 8 7 10 13 10 7 7 6 6 6 7 7 7 7 6 5 4 5
4 1 1 1 1 1 4 5 9 5 2 0 3 2 1 2 2 1 1 1 1 1 1 1 1 2 2 4 4 2 1 1 1 1 1 0 2 1 0 1 0 2 1 2 1 3 2 2 1 1 3 3 4 1 4 5 6 6 7 8 8 7 8 9 8 5 8 8 8 10 9 8 8 8 8 8 8 8 5 5 6 5 6 5 5 6 6
4 2 1 1 3 3 4 6 4 3 2 1 1 2 1 1 1 0 1 3 0 0 1 2 1 1 1 1 1 2 1 3 2 2 2 2 1 2 2 1 1 2 1 2 0 1 1 2 1 2 4 2 5 5 5 5 6 5 5 6 7 7 9 8 7 8 9 8 7 8 9 10 9 8 8 9 8 7 7 7 6 5 6 7 6 4 5
4 3 4 5 5 5 4 2 3 1 1 1 2 0 1 1 0 1 0 2 1 0 1 1 0 2 1 1 1 3 1 2 1 1 1 1 1 1 2 0 1 2 1 1 0 2 2 2 1 2 2 4 4 4 6 6 5 7 6 7 7 6 7 8 8 8 8 8 7 7 6 8 9 7 7 7 7 7 6 6 6 5 6 4 4 6 6
8 6 4 3 2 1 2 1 2 1 1 0 2 1 1 1 0 1 0 1 1 0 1 2 1 0 1 1 2 3 1 2 1 1 2 1 0 1 2 1 1 2 1 0 1 1 2 1 2 4 5 6 5 7 7 8 6 6 7 6 6 6 8 9 9 7 6 8 9 7 6 7 6 5 5 6 6 6 4 3 6 7 5 5 5 6 6
1 1 1 1 1 1 1 3 1 1 2 1 2 3 1 0 0 0 0 1 2 1 3 5 3 4 2 2 1 0 0 1 2 2 2 0 1 1 2 1 1 0 1 1 1 1 1 1 2 7 6 4 3 5 6 6 6 6 5 4 4 5 5 7 8 8 6 5 6 6 6 7 6 4 2 3 6 8 5 5 3 5 6 6 6 6 5
1 1 1 1 1 1 1 2 2 2 4 3 1 1 3 3 2 1 2 1 2 4 3 1 4 4 4 1 1 1 0 1 1 2 0 0 2 1 1 2 1 1 1 1 1 1 1 1 2 2 5 7 6 5 6 7 7 8 7 6 6 6 7 8 8 7 6 6 7 7 6 6 6 5 4 3 2 5 9 8 7 6 6 6 6 5 5
0 2 2 3 1 2 1 0 1 1 2 2 2 5 4 3 4 4 3 2 3 4 6 5 5 6 3 2 1 1 1 1 1 1 0 0 2 1 0 0 1 2 1 1 1 3 3 4 6 7 8 9 8 7 7 6 5 6 9 7 6 7 7 8 7 7 7 6 6 6 6 6 6 6 5 4 5 4 5 7 6 7 7 6 6 6 6
0 1 1 1 2 1 1 2 3 2 3 4 4 7 4 5 5 0 2 2 2 3 5 2 2 2 4 0 0 0 2 1 2 0 0 1 1 1 0 1 0 0 2 1 3 3 2 3 6 9 9 9 8 7 7 7 7 9 8 7 7 7 7 7 7 7 6 7 7 6 6 5 5 5 6 6 4 4 5 6 6 7 7 7 6 6 5
1 1 1 2 3 2 3 3 1 1 0 1 1 1 1 1 3 2 2 2 3 5 8 6 5 2 3 2 1 1 0 1 2 1 1 2 0 2 1 1 0 1 2 2 3 2 2 5 9 9 9 9 9 9 8 8 8 8 8 8 10 9 8 8 7 7 9 9 8 7 6 6 7 7 7 8 7 5 5 5 5 5 3 4 5 5 5
0 1 1 2 1 2 1 1 3 4 1 1 1 0 2 3 3 2 2 1 4 4 1 3 3 3 1 1 1 0 1 2 1 1 0 1 1 2 1 1 0 1 3 4 1 2 3 7 8 10 9 9 9 9 8 8 9 9 8 9 9 10 10 9 9 9 9 8 8 8 7 6 6 6 6 6 7 5 4 5 5 4 4 5 6 5 4
1 1 1 2 2 1 0 1 1 1 1 1 1 3 1 1 2 2 2 5 2 4 3 4 2 3 0 0 1 2 0 0 1 1 1 1 1 1 1 0 3 2 0 2 3 2 3 7 9 9 10 9 10 9 9 8 9 9 8 8 8 8 8 9 8 9 9 8 8 8 9 7 6 6 7 8 6 6 6 5 5 5 4 3 5 5 6
0 0 1 2 3 3 5 4 5 3 2 4 4 5 5 6 5 5 4 5 4 3 2 3 1 2 1 2 2 1 0 1 1 1 1 1 1 2 2 2 3 4 4 2 2 2 6 9 9 9 9 10 9 9 9 9 9 9 8 8 8 8 8 9 10 9 8 7 8 9 8 8 7 7 5 5 6 6 4 3 3 4 4 4 4 5 5
1 1 3 2 1 2 4 2 1 4 5 5 6 3 3 4 4 3 3 4 4 4 3 1 2 2 2 2 2 1 1 2 1 0 0 2 2 2 3 4 2 3 5 3 2 3 4 7 9 11 11 11 11 9 9 8 8 7 8 8 8 8 9 8 8 8 8 7 8 8 7 6 6 5 5 6 6 6 6 5 5 5 5 5 5 5 4
Wind_Direction
137 151 165 151 156 156 153 8 285 152 52 341 314 325 246 230 42 81 146 162 185 293 73 82 176 213 239 350 285 251 287 223 271 267 111 322 198 273 239 245 228 234 227 228 139 131 79 230 173 138 110 142 215 155 194 169 164 151 133 68 158 106 79 98 75 101 10 27 182 95 38 134 117 37 52 152 162 172 165 175 157 137 140 147 164 186 102
144 156 139 152 144 126 78 111 224 94 97 326 315 277 258 306 103 83 132 188 303 232 163 184 202 227 311 183 261 294 257 149 261 237 180 171 267 236 267 284 200 275 187 208 161 198 117 330 120 106 214 116 136 192 198 186 158 166 187 176 171 172 288 150 132 110 91 99 128 123 95 72 71 116 81 23 81 68 87 83 73 118 193 127 159 186 158
147 142 135 125 122 71 36 209 186 94 58 342 331 298 309 288 81 69 134 212 305 235 5 184 162 209 211 168 227 229 234 217 223 240 231 194 235 216 238 228 5 269 234 101 88 42 134 128 357 79 124 90 4 27 170 220 183 8 291 63 140 72 143 153 166 153 153 152 172 167 170 140 100 66 102 26 135 135 147 133 168 169 161 168 189 132 82
123 112 117 104 97 65 79 261 100 56 15 342 324 281 276 258 141 83 124 234 283 277 262 278 250 162 198 269 265 184 239 272 237 213 243 227 236 232 267 320 206 248 202 86 48 56 5 113 159 164 156 140 77 297 27 170 146 123 112 89 89 108 74 24 164 164 140 91 86 360 52 123 143 116 81 115 27 3 55 92 153 187 151 188 200 141 145
100 100 91 76 62 26 344 112 74 49 343 313 298 285 265 311 165 147 155 237 273 272 278 270 209 215 163 186 191 202 210 270 297 175 228 201 201 229 178 149 348 250 120 117 86 0 82 56 112 158 137 262 82 327 49 95 101 115 91 43 87 101 82 50 68 52 39 355 350 27 3 110 59 125 108 26 86 309 131 151 171 111 121 190 125 162 151
80 78 63 49 28 52 231 92 60 49 307 322 308 277 205 227 55 182 201 196 187 203 253 221 233 264 189 240 303 232 199 198 238 302 233 305 193 242 159 120 154 278 214 135 104 107 69 52 104 115 11 128 20 92 32 80 304 3 76 334 106 114 109 185 78 65 59 56 71 81 78 61 80 66 50 56 341 216 155 155 131 157 179 187 163 177 171
66 66 51 22 34 28 57 45 10 338 311 321 294 297 237 256 307 274 276 262 302 199 109 175 204 231 198 294 237 248 207 247 223 213 318 307 247 181 226 352 335 314 270 152 129 156 118 357 310 176 146 165 135 108 110 61 15 86 84 52 81 105 61 126 118 93 46 35 46 71 105 104 71 55 55 49 76 70 77 93 39 7 80 137 150 165 120
49 41 35 44 58 51 37 28 347 324 308 278 296 245 295 164 296 38 253 311 330 245 171 205 178 212 233 238 226 211 210 245 321 165 80 319 300 75 75 23 103 227 140 104 108 221 223 160 157 221 137 82 9 114 183 139 46 42 68 99 339 124 131 158 230 73 41 23 51 69 88 115 85 57 52 58 77 83 77 101 125 126 67 118 134 139 125
38 30 27 35 40 45 7 20 7 351 330 243 231 276 207 306 344 353 318 237 232 141 174 155 173 191 213 215 244 213 220 261 232 237 192 227 295 351 140 183 93 64 76 75 82 30 120 60 89 146 205 133 208 135 155 225 115 42 74 31 15 55 131 70 165 100 68 22 53 90 100 91 90 62 39 32 36 76 81 100 196 196 138 134 132 143 160
34 27 32 38 25 24 10 10 0 350 349 276 295 279 350 298 345 360 301 244 286 197 98 86 124 231 214 187 202 211 237 143 32 356 239 199 194 13 336 206 80 44 64 38 38 67 62 71 86 94 82 90 81 64 72 40 136 128 93 329 67 103 136 160 147 97 132 138 294 96 254 112 79 31 1 7 58 85 91 72 55 24 136 136 162 184 111
30 32 32 34 19 5 10 9 4 9 1 360 325 328 14 40 343 323 307 247 272 218 169 205 214 266 153 198 196 268 286 283 289 198 303 344 360 356 330 22 83 34 51 21 351 102 106 117 111 101 85 77 79 73 77 60 45 42 125 98 71 90 121 100 348 99 148 275 338 218 146 175 136 7 288 284 328 133 107 63 35 29 39 95 61 107 116
21 24 22 42 20 14 4 3 3 7 358 323 310 302 60 41 289 263 329 234 261 5 201 214 217 298 237 103 146 218 295 303 297 239 190 123 292 334 9 2 80 81 185 6 89 101 151 177 116 70 63 68 67 59 52 53 41 42 327 131 123 116 87 85 52 112 141 186 229 142 183 124 13 314 36 125 115 99 88 74 62 81 98 104 104 113 113
20 28 23 22 20 12 8 355 359 349 350 337 336 317 43 334 272 308 300 289 245 175 185 237 286 291 29 15 353 287 250 293 283 197 90 86 37 23 5 18 61 114 115 132 81 46 74 77 60 55 39 7 37 47 39 32 25 25 36 33 117 128 111 129 63 51 90 134 150 171 145 345 311 87 83 102 124 121 104 63 44 57 112 118 111 108 108
16 28 20 18 10 11 1 356 344 346 347 355 339 352 27 318 12 354 6 5 316 19 344 314 285 270 155 281 281 282 355 248 197 55 73 7 69 38 8 35 352 300 126 104 51 46 79 13 60 24 6 11 17 38 3 61 40 31 21 25 19 122 105 105 99 323 147 116 74 62 108 189 125 147 172 187 160 180 277 134 43 41 128 133 126 120 116
21 14 9 8 10 2 359 349 349 339 338 337 294 283 224 224 70 46 323 282 319 271 157 173 13 258 132 272 183 230 230 70 76 35 316 266 67 26 40 7 42 99 79 24 25 34 91 105 59 68 20 38 107 109 339 30 19 37 36 32 48 321 123 211 120 33 129 139 111 114 131 211 190 143 94 94 93 105 139 96 123 161 129 149 140 136 133
15 3 359 4 2 3 353 351 342 339 332 338 288 266 238 194 129 97 268 324 298 27 78 216 250 253 152 225 194 228 139 85 71 76 9 14 357 343 131 172 211 144 67 71 67 77 27 79 162 86 109 129 0 91 115 356 41 56 25 42 64 50 63 86 93 132 139 129 135 170 169 209 62 143 138 107 130 167 215 221 176 165 160 158 152 138 142
5 1 3 2 360 353 349 344 341 336 336 338 335 311 299 166 173 197 146 85 102 239 305 287 223 167 93 177 196 67 348 114 170 114 110 15 345 299 303 346 148 66 59 83 8 73 52 63 46 79 74 293 148 110 83 23 100 66 28 24 49 46 12 59 82 109 81 132 120 154 243 96 108 145 115 83 128 172 241 204 196 154 166 161 158 151 146
356 2 359 358 355 350 346 343 343 341 337 338 301 323 287 159 191 192 216 260 65 274 250 205 173 149 150 185 132 199 108 108 62 36 70 290 296 357 338 351 27 48 197 77 357 74 73 94 122 136 109 23 299 276 153 158 96 80 35 15 29 11 41 18 123 125 107 97 84 47 149 100 177 119 337 326 216 250 188 198 70 148 150 153 151 143 145
355 353 356 355 351 345 342 343 347 342 342 341 340 291 270 212 186 210 243 238 231 292 322 341 208 162 137 78 68 127 33 7 160 106 61 79 35 351 311 269 308 349 11 123 63 75 103 45 338 355 127 139 293 128 18 129 105 56 265 131 104 54 95 68 112 96 127 94 102 93 346 32 31 135 297 294 211 172 190 39 143 139 141 138 141 134 136
352 352 353 349 345 341 340 343 342 341 338 341 344 297 277 176 202 201 203 235 276 278 287 321 359 33 310 40 71 52 160 50 6 109 164 134 150 112 116 85 359 78 49 52 71 260 116 137 118 146 61 116 61 120 76 48 348 56 350 321 22 101 113 118 116 123 77 32 91 125 180 132 19 11 85 339 267 54 90 120 122 137 136 134 129 126 115
351 349 345 341 338 337 338 338 336 333 334 328 343 319 318 114 202 209 229 223 318 298 31 17 3 359 1 25 22 44 82 86 176 67 209 87 20 45 139 203 149 94 162 110 125 149 151 128 157 101 36 81 119 230 150 134 82 92 326 20 76 336 89 120 166 254 120 141 165 184 37 101 39 259 172 112 37 116 145 132 130 132 137 132 122 103 113
352 345 340 336 332 332 332 330 327 326 330 327 309 260 270 205 181 218 208 222 227 227 275 298 277 264 316 329 350 344 355 323 287 141 141 118 3 319 101 107 126 188 146 133 80 80 351 104 115 135 140 113 8 69 120 140 147 118 221 274 161 1 325 324 138 159 348 71 93 144 216 329 50 74 71 64 87 110 125 142 135 139 133 133 124 125 120
350 345 338 334 328 326 327 323 323 323 320 320 308 234 251 275 297 169 165 194 260 262 267 297 313 256 237 194 142 51 66 145 86 65 126 110 115 345 132 138 166 155 84 300 179 111 126 138 111 119 103 55 128 126 44 18 107 163 119 6 64 64 82 176 89 110 114 71 67 114 101 94 69 61 73 93 90 69 90 115 126 125 132 124 127 129 128
342 339 334 329 326 323 323 322 320 319 314 308 302 271 267 252 259 152 162 285 184 287 98 352 42 4 343 341 345 350 20 18 15 287 271 251 112 157 245 262 118 123 6 120 303 130 139 78 104 227 90 135 185 108 144 144 159 147 116 119 92 117 317 22 107 149 157 69 57 95 100 93 77 82 83 76 83 93 91 95 119 122 115 107 117 126 129
340 336 332 326 325 321 320 317 310 304 297 293 285 243 246 242 213 190 176 197 235 113 99 334 36 315 305 265 258 321 28 339 322 353 116 83 114 153 144 97 152 52 152 136 190 91 73 112 142 126 106 188 274 93 340 111 141 203 110 128 146 139 173 91 111 105 57 129 121 98 85 83 92 102 110 98 91 83 79 97 105 107 108 109 112 114 113
340 336 331 327 323 320 317 313 310 304 297 293 275 220 203 222 200 193 230 28 149 119 88 56 27 348 307 13 20 324 295 338 353 45 46 46 39 58 125 142 76 43 89 92 44 78 95 67 84 75 121 136 278 119 115 323 104 123 28 144 6 86 163 124 152 106 99 98 108 114 94 67 67 82 80 99 114 112 103 106 109 108 105 105 100 103 115
338 334 328 325 322 317 315 311 309 308 308 304 282 221 217 212 184 183 187 186 122 24 45 82 300 321 15 47 1 342 346 341 30 50 44 36 51 58 73 88 100 87 82 70 39 103 73 82 69 70 37 100 108 69 109 110 98 118 101 75 122 168 139 130 121 118 159 171 170 159 134 155 123 108 119 118 118 117 115 115 113 113 114 113 110 101 99
336 331 326 322 319 316 313 314 311 312 315 326 264 201 201 205 207 206 225 347 20 146 142 135 60 349 272 47 11 359 354 13 53 55 53 52 50 51 61 67 78 67 23 75 83 48 52 81 77 157 91 190 113 70 19 109 115 83 85 99 332 216 164 167 161 150 183 169 158 153 64 94 123 128 127 125 124 122 120 121 122 122 116 114 120 122 116
333 329 324 320 317 316 314 314 313 317 328 354 151 148 189 223 218 210 216 193 128 101 90 122 224 33 50 307 310 356 357 33 57 48 53 50 48 47 55 55 59 83 88 73 90 80 71 84 34 63 77 346 86 131 162 80 75 105 97 338 298 300 304 315 105 98 91 125 129 128 135 129 132 128 126 125 125 121 117 117 116 116 116 118 119 120 122
330 327 324 320 317 317 316 315 315 323 333 328 103 55 44 80 179 192 187 178 185 126 93 89 82 103 279 302 335 342 344 9 49 50 45 43 39 40 32 50 44 26 65 68 78 87 55 86 58 67 25 297 97 110 84 108 89 73 12 349 358 126 147 89 359 281 138 116 109 118 113 117 121 123 121 119 120 121 118 121 121 119 118 116 118 111 102
328 324 323 320 317 317 318 317 317 327 338 168 69 53 46 76 53 151 170 175 177 101 112 81 94 271 33 49 8 348 347 348 31 47 43 48 64 36 350 68 51 356 65 56 51 81 84 50 27 50 56 27 58 90 121 119 114 77 29 51 96 116 105 104 98 108 110 105 109 107 106 113 119 112 108 113 115 119 117 109 108 107 112 106 107 109 109
325 323 320 319 317 316 315 316 316 329 318 241 77 146 171 177 329 201 189 131 185 95 84 86 62 30 338 322 346 304 316 4 23 22 37 349 29 9 37 39 66 18 57 80 86 95 49 259 66 48 48 347 11 91 81 100 103 118 111 109 115 118 118 121 113 109 113 122 118 105 107 118 124 123 122 123 111 113 115 112 106 102 100 94 89 65 69
322 321 319 316 316 315 313 313 313 318 264 266 271 283 265 254 306 305 149 174 71 63 117 75 103 187 81 61 309 358 6 10 23 1 41 357 24 339 39 15 2 59 31 82 22 70 293 79 236 71 22 311 73 88 75 66 91 123 124 123 123 124 121 116 116 121 128 128 91 135 139 130 116 116 116 111 107 110 106 101 103 101 99 94 88 85 87
321 319 317 315 312 312 311 310 308 288 243 2 54 0 204 2 5 41 40 80 94 120 67 95 70 39 27 296 76 359 6 53 6 327 58 8 320 28 18 19 8 75 358 36 288 103 79 50 52 87 217 39 15 86 78 91 117 119 121 120 120 118 114 103 99 98 87 85 82 86 104 113 111 105 100 100 97 87 89 96 107 106 104 110 110 114 121
319 316 312 312 310 309 311 313 353 49 77 279 260 220 320 342 354 337 76 127 76 0 42 20 89 94 38 18 43 353 359 54 37 341 66 26 351 36 357 45 347 56 17 239 67 35 39 37 268 78 48 275 59 66 97 134 124 123 125 123 121 112 103 93 82 97 102 97 99 96 101 116 118 111 110 110 109 116 119 120 124 129 128 129 130 130 130
316 313 312 309 306 305 300 341 36 9 31 340 260 308 330 321 323 350 117 78 98 151 81 201 55 97 123 106 84 29 312 65 331 313 35 279 31 24 57 79 72 27 268 34 39 327 34 319 269 58 299 70 33 63 133 141 133 130 129 129 132 124 118 126 121 112 107 103 99 106 107 96 105 112 113 113 118 123 127 130 134 131 124 124 125 122 110
314 313 312 304 306 69 9 236 285 80 119 259 283 303 297 300 289 63 13 49 22 70 121 155 88 174 165 143 234 278 57 93 335 6 356 29 70 312 23 35 58 314 34 11 20 24 6 317 59 63 26 52 69 105 126 134 135 134 128 109 95 106 116 121 124 120 113 113 113 105 103 104 99 107 116 125 129 131 131 135 140 137 138 135 135 131 123
312 316 352 360 38 38 17 324 308 305 314 299 313 340 4 27 72 353 3 38 307 52 17 65 83 137 318 177 82 299 73 60 314 92 81 233 88 51 356 62 358 67 57 324 17 275 335 39 36 68 72 66 80 85 109 121 109 95 109 114 116 117 112 120 128 124 126 125 124 125 118 111 117 127 134 139 146 148 146 142 139 130 126 127 123 120 112
352 351 44 33 93 123 192 269 333 327 287 239 34 73 355 358 49 36 350 284 359 42 313 79 139 192 119 68 51 331 47 134 81 27 102 323 99 84 352 81 353 71 28 64 40 312 58 23 27 65 76 104 111 97 86 99 86 90 95 92 103 111 111 94 87 98 103 81 113 122 123 140 146 142 134 130 117 107 120 129 123 125 124 121 120 114 117
6 19 11 12 91 269 279 298 339 336 71 57 345 94 97 330 102 197 316 60 5 322 308 80 204 174 240 147 151 95 296 335 102 101 103 64 314 85 247 96 309 78 18 36 15 328 103 84 342 89 95 109 106 117 139 132 117 118 120 119 114 105 97 97 90 64 102 110 108 115 114 107 114 126 131 130 129 124 120 121 121 124 127 127 135 142 139
0 334 11 17 313 320 301 307 320 48 57 35 15 16 54 45 18 194 66 59 2 214 309 119 130 139 75 46 34 118 295 91 67 85 94 56 275 112 53 76 265 78 21 79 344 50 74 79 20 88 127 122 133 146 138 126 117 117 116 124 125 125 125 125 128 131 122 116 119 126 132 138 137 137 135 136 133 131 137 137 137 133 131 136 152 134 113
297 285 298 292 278 277 295 354 43 48 22 42 120 84 288 240 320 8 71 150 207 230 92 128 120 106 86 336 81 125 72 330 104 91 109 94 343 92 125 28 352 107 108 92 118 72 67 90 45 132 131 124 123 140 144 131 132 136 137 140 142 142 139 133 132 135 132 128 128 127 129 134 133 133 137 135 133 135 134 128 124 140 146 125 108 120 127
302 258 234 291 308 346 31 64 323 99 163 194 50 40 350 87 109 171 252 282 315 100 114 337 12 28 40 182 81 12 89 233 278 9 68 77 274 52 81 39 41 75 82 14 67 74 64 121 163 152 142 147 165 163 161 151 146 145 150 156 152 154 149 140 138 134 127 132 137 133 135 128 124 128 131 119 109 97 87 112 143 145 148 145 138 124 129
258 240 257 292 72 289 89 178 239 66 8 23 120 175 234 107 260 48 40 228 163 153 195 151 183 178 119 329 93 84 83 91 58 89 67 314 56 19 52 46 51 18 312 48 33 89 117 225 191 155 151 138 155 158 141 135 139 130 133 135 127 131 125 117 120 121 106 84 90 109 117 118 119 117 119 120 132 126 117 119 127 127 132 132 123 123 133
280 358 27 27 41 285 91 238 342 125 193 225 134 154 145 167 223 213 197 243 139 172 140 79 129 111 96 326 38 38 16 147 310 93 146 32 72 26 91 127 160 22 100 123 32 59 358 183 158 141 152 161 177 164 144 145 154 151 141 137 146 147 149 146 144 134 132 138 138 136 130 133 129 130 138 134 131 140 136 141 150 139 135 129 123 130 155
121 172 102 95 323 313 113 183 12 154 285 145 178 184 164 222 161 205 227 113 123 143 148 161 126 105 83 309 120 123 354 94 65 32 102 64 90 80 49 23 70 88 49 55 127 195 204 168 158 170 170 169 167 158 155 147 138 130 136 150 168 164 165 155 154 149 144 141 146 145 141 146 141 143 147 138 140 130 115 127 142 137 134 138 153 156 158
172 4 92 107 120 248 53 156 226 206 176 186 213 184 176 185 176 153 123 177 119 140 92 50 70 114 114 70 50 55 48 33 87 311 239 47 91 124 351 189 215 170 146 214 237 238 235 198 171 161 167 167 154 148 144 146 157 166 168 146 154 163 164 161 155 150 148 145 144 147 144 143 133 129 126 121 111 108 119 131 142 147 156 162 154 137 141
225 234 97 168 215 171 166 220 191 61 16 324 354 202 315 6 143 162 180 207 138 159 134 125 110 85 76 311 37 94 9 334 101 35 42 128 123 37 17 36 283 241 202 180 222 212 189 165 166 162 165 161 149 144 153 156 167 172 159 155 158 155 162 161 157 150 150 153 155 152 146 143 143 155 150 137 136 134 145 145 143 146 133 120 132 144 145
206 161 184 196 182 158 209 281 139 164 83 332 225 225 145 167 195 156 152 150 147 146 147 113 155 100 85 318 75 100 67 352 89 176 58 45 102 181 155 198 298 295 236 195 222 180 185 164 157 149 150 153 153 153 162 164 164 166 165 163 165 164 161 166 165 160 158 149 148 149 156 154 147 144 131 132 146 154 150 148 155 160 158 150 149 154 158
196 300 39 91 78 357 314 265 73 193 291 321 184 170 200 240 122 136 171 136 124 123 124 68 45 80 51 92 45 17 57 314 116 109 76 148 169 155 87 30 225 200 260 186 213 206 149 142 139 144 155 156 159 159 157 165 166 167 171 173 158 155 161 154 150 158 159 157 154 149 143 140 145 139 151 168 160 132 141 158 167 169 159 163 158 161 172
291 142 224 170 156 190 152 157 167 181 218 213 199 195 181 190 173 162 205 139 152 113 50 138 143 101 116 41 51 87 190 173 94 79 185 188 152 131 185 201 225 209 235 232 155 148 152 153 152 150 153 160 161 162 159 160 168 170 164 163 166 157 151 152 155 158 151 145 141 137 145 160 166 165 142 116 124 138 138 156 178 178 169 166 183 181 182
111 163 216 218 102 131 156 53 40 180 190 190 196 212 155 192 210 160 151 137 142 148 159 170 105 78 77 141 211 135 92 51 37 45 292 248 177 165 203 204 212 211 211 167 165 168 172 162 160 158 160 160 163 159 160 157 158 155 158 157 154 153 151 150 157 155 144 145 155 160 159 143 124 111 121 135 135 143 165 185 186 186 187 189 193 199 207